Location: Ben Robins Landing
(38.6582°N, 75.1566°W)
Time: 08:27:31
(UTC+00:00)

ATLAS CENTAUR R/B - Pass Details

Date: 10 September 2024
Orbit: 193 x 1525 km, 57.1° (Epoch: 12 October)

Event Time Altitude Azimuth Distance (km) Brightness Sun altitude
Rises 23:30:41 0° 319° (NW) 2,876 6.4 -3.7°
Reaches altitude 10° 23:32:34 10° 320° (NW) 2,165 5.7 -4.1°
Maximum altitude 23:37:39 79° 48° (NE) 971 3.0 -5.0°
Drops below altitude 10° 23:45:46 10° 135° (SE) 3,388 5.3 -6.6°
Sets 23:49:19 0° 137° (SE) 4,620 6.0 -7.3°
